Flag for Switzerland Weather past 2 weeks in Biel, Switzerland

Now
64 °F

Mild.


Feels Like: 64 °F
Forecast: 58 / 92 °F
Wind: 5 mph from East

Location: Grenchen

Current Time: Aug 5, 2015 at 9:32:40 AM

Latest Report: Aug 5, 2015 at 8:00 AM


Visibility: N/A

Pressure: 30.08 "Hg

Humidity: 85%

Dew point: 59 °F

Location of BielLocation

Historic Weather in Biel — Graph

°F

Biel temperature yesterday

Maximum temperature yesterday: 76 °F (at 5:00 PM)
Minimum temperature yesterday: 60 °F (at 5:00 AM)
Average temperature yesterday: 69 °F

Past Weeks' High & Low Weather Summary

 TemperatureHumidityPressure
High92 °F (Jul 21, 6:00 PM)98% (Aug 3, 7:00 AM)30.13 "Hg (Aug 3, 7:00 AM)
Low49 °F (Jul 30, 6:00 AM)32% (Jul 25, 6:00 PM)29.64 "Hg (Jul 24, 7:00 PM)
Average68 °F66%29.95 "Hg
* Reported Jul 21 8:00 AM — Aug 5 8:00 AM, Biel, Weather by CustomWeather, © 2015

Note: Actual official high and low records may vary slightly from our data, if they occured in-between our weather recording intervals... More about our weather records

Advertising

Biel weather history for previous 24 hours

 ConditionsComfort  
Time TempWeatherWind HumidityBarometerVisibility
8:00 AM
Wed, Aug 5
64 °FMild.5 mph85%30.08 "HgN/A
7:00 AM59 °FCool.1 mph95%30.09 "HgN/A
5:00 AM60 °FCool.2 mph93%30.09 "HgN/A
4:00 AM60 °FCool.6 mph92%30.09 "HgN/A
3:00 AM61 °FCool.3 mph91%30.09 "HgN/A
2:00 AM64 °FMild.3 mph85%30.10 "HgN/A
1:00 AM65 °FMild.5 mph82%30.10 "HgN/A
12:00 AM67 °FMild.2 mph77%30.10 "HgN/A
11:00 PM
Tue, Aug 4
70 °FMild.2 mph63%30.09 "HgN/A
10:00 PM71 °FMild.6 mph60%30.07 "HgN/A
9:00 PM72 °FMild.9 mph62%30.05 "HgN/A
8:00 PM73 °FMild.7 mph64%30.04 "HgN/A
7:00 PM75 °FMild.8 mph62%30.02 "HgN/A
6:00 PM76 °FMild.3 mph58%30.02 "HgN/A
5:00 PM76 °FMild.2 mph57%30.01 "HgN/A
4:00 PM75 °FMild.2 mph62%30.03 "HgN/A
3:00 PM72 °FMild.1 mph67%30.04 "HgN/A
2:00 PM71 °FMild.3 mph67%30.04 "HgN/A
1:00 PM73 °FMild.6 mph63%30.05 "HgN/A
12:00 PM73 °FMild.8 mph62%30.03 "HgN/A
11:00 AM74 °FMild.9 mph57%30.01 "HgN/A
10:00 AM74 °FMild.10 mph64%29.99 "HgN/A
9:00 AM66 °FMild.3 mph86%30.00 "HgN/A
Weather by CustomWeather, © 2015

See weather overviewHow to use our weather pages